Lafayette, CO

10:03 PM MDT on August 24, 2016 (GMT -0600)
Erie Municipal Airport

Weather History for KEIK - January, 2013

Change the Weather History Date:

Thursday, January 3, 2013

  Actual Average (KBDU) Record (KBDU)
Temperature  
Mean Temperature 20 °F -  
Max Temperature 38 °F - 60 °F (2014)
Min Temperature 2 °F - 10 °F (2015)
Degree Days  
Heating Degree Days 45    
Month to date heating degree days  
Cooling Degree Days 0    
Month to date cooling degree days  
Moisture  
Dew Point 4 °F    
Average Humidity 58    
Maximum Humidity 85    
Minimum Humidity 17    
Precipitation  
Precipitation 0.00 in - 0.00 in (2016)
Sea Level Pressure  
Sea Level Pressure 30.22 in    
Wind  
Wind Speed 2 mph (South)    
Max Wind Speed 7 mph    
Max Gust Speed -    
Visibility 10 miles    
Events      
T = Trace of Precipitation, MM = Missing Value Source: NWS Daily Summary

Daily Weather History Graph

Daily Weather History Graph

Search for Another Location

Airport or City:

Trip Planner

Search our weather history database for the weather conditions in past years. The results will help you decide how hot, cold, wet, or windy it might be!

Date:

Astronomy

Jan. 03, 2013 Rise Set
Actual Time 7:22 AM MST 4:47 PM MST
Civil Twilight 6:51 AM MST 5:18 PM MST
Nautical Twilight 6:18 AM MST 5:51 PM MST
Astronomical Twilight 5:45 AM MST 6:24 PM MST
Moon 11:25 PM MST (1/3) 10:35 AM MST (1/3)
Length of Visible Light 10h 26m
Length of Day
9h 25m
Waning Gibbous, 65% of the Moon is Illuminated
Jan 3
Waning Gibbous
Jan 4
Last Quarter
Jan 11
New
Jan 18
First Quarter
Jan 26
Full

Hourly Weather History & Observations

Time (MST) Temp. Windchill Dew Point Humidity Pressure Visibility Wind Dir Wind Speed Gust Speed Precip Events Conditions
12:16 AM 14.9 °F - 10.4 °F 82% 30.27 in 10.0 mi Calm Calm - N/A   Overcast
12:36 AM 15.6 °F - 10.8 °F 81% 30.27 in 10.0 mi Calm Calm - N/A   Overcast
12:56 AM 15.6 °F 8.3 °F 11.3 °F 83% 30.26 in 10.0 mi SSW 4.6 mph - N/A   Overcast
1:16 AM 16.9 °F - 11.3 °F 79% 30.26 in 10.0 mi Calm Calm - N/A   Overcast
1:36 AM 16.7 °F - 11.1 °F 79% 30.27 in 10.0 mi Calm Calm - N/A   Overcast
1:56 AM 16.5 °F - 10.6 °F 77% 30.28 in 10.0 mi Calm Calm - N/A   Overcast
2:16 AM 14.9 °F - 10.4 °F 82% 30.28 in 10.0 mi Calm Calm - N/A   Mostly Cloudy
2:36 AM 13.8 °F - 10.0 °F 85% 30.28 in 10.0 mi Calm Calm - N/A   Scattered Clouds
2:56 AM 10.0 °F - 6.1 °F 84% 30.28 in 10.0 mi Calm Calm - N/A   Clear
3:16 AM 10.6 °F 4.3 °F 6.1 °F 82% 30.27 in 10.0 mi South 3.5 mph - N/A   Clear
3:36 AM 8.8 °F - 3.7 °F 80% 30.28 in 10.0 mi Calm Calm - N/A   Clear
3:56 AM 9.9 °F - 2.7 °F 73% 30.28 in 10.0 mi Calm Calm - N/A   Clear
4:16 AM 9.0 °F - 3.2 °F 77% 30.27 in 10.0 mi Calm Calm - N/A   Clear
4:36 AM 7.3 °F - 2.1 °F 79% 30.27 in 10.0 mi Calm Calm - N/A   Clear
4:56 AM 5.4 °F - 0.9 °F 82% 30.27 in 10.0 mi Calm Calm - N/A   Clear
5:16 AM 4.1 °F -5.1 °F -0.2 °F 82% 30.26 in 10.0 mi SSW 4.6 mph - N/A   Clear
5:36 AM 4.1 °F - 0.1 °F 84% 30.26 in 10.0 mi Calm Calm - N/A   Clear
5:56 AM 4.3 °F - -0.0 °F 82% 30.26 in 10.0 mi Calm Calm - N/A   Clear
6:16 AM 3.6 °F - -1.3 °F 80% 30.26 in 10.0 mi Calm Calm - N/A   Clear
6:36 AM 4.1 °F -5.1 °F -0.0 °F 83% 30.26 in 10.0 mi South 4.6 mph - N/A   Clear
6:56 AM 4.5 °F -2.7 °F 0.5 °F 84% 30.26 in 10.0 mi SSW 3.5 mph - N/A   Clear
7:16 AM 2.5 °F - -2.2 °F 81% 30.26 in 10.0 mi Calm Calm - N/A   Clear
7:36 AM 3.9 °F -3.4 °F -1.5 °F 78% 30.25 in 10.0 mi SSW 3.5 mph - N/A   Clear
7:56 AM 4.5 °F -6.3 °F -0.4 °F 80% 30.25 in 10.0 mi SSW 5.8 mph - N/A   Clear
8:36 AM 11.3 °F - 4.3 °F 73% 30.26 in 10.0 mi Calm Calm - N/A   Clear
8:56 AM 15.4 °F 9.8 °F 6.8 °F 69% 30.25 in 10.0 mi South 3.5 mph - N/A   Clear
9:16 AM 19.4 °F 14.3 °F 5.5 °F 55% 30.26 in 10.0 mi South 3.5 mph - N/A   Clear
9:36 AM 23.2 °F 18.7 °F 5.7 °F 47% 30.27 in 10.0 mi South 3.5 mph - N/A   Clear
9:56 AM 25.9 °F 19.2 °F 5.0 °F 41% 30.26 in 10.0 mi South 5.8 mph - N/A   Clear
10:16 AM 27.9 °F 20.6 °F 5.7 °F 39% 30.26 in 10.0 mi South 6.9 mph - N/A   Clear
10:36 AM 29.7 °F 23.7 °F 4.3 °F 34% 30.26 in 10.0 mi South 5.8 mph - N/A   Clear
10:56 AM 31.8 °F 25.4 °F 4.8 °F 32% 30.25 in 10.0 mi SSW 6.9 mph - N/A   Clear
11:16 AM 32.5 °F 26.2 °F 3.4 °F 29% 30.25 in 10.0 mi South 6.9 mph - N/A   Clear
11:36 AM 34.2 °F 29.0 °F 3.7 °F 28% 30.23 in 10.0 mi South 5.8 mph - N/A   Clear
11:56 AM 35.1 °F 30.1 °F -0.6 °F 22% 30.22 in 10.0 mi South 5.8 mph - N/A   Clear
12:16 PM 35.6 °F 32.8 °F -3.6 °F 19% 30.20 in 10.0 mi South 3.5 mph - N/A   Clear
12:36 PM 36.5 °F 32.7 °F -3.3 °F 18% 30.19 in 10.0 mi SSE 4.6 mph - N/A   Clear
12:56 PM 37.4 °F 33.8 °F -3.6 °F 17% 30.18 in 10.0 mi South 4.6 mph - N/A   Clear
1:16 PM 37.6 °F 35.1 °F -4.2 °F 17% 30.17 in 10.0 mi SSE 3.5 mph - N/A   Clear
1:36 PM 38.1 °F 33.7 °F -2.4 °F 18% 30.16 in 10.0 mi SSE 5.8 mph - N/A   Clear
1:56 PM 38.3 °F 33.9 °F -1.3 °F 19% 30.16 in 10.0 mi South 5.8 mph - N/A   Clear
2:16 PM 38.5 °F 35.0 °F -3.5 °F 17% 30.15 in 10.0 mi SSE 4.6 mph - N/A   Clear
2:36 PM 38.5 °F 34.1 °F -2.2 °F 18% 30.16 in 10.0 mi SSE 5.8 mph - N/A   Clear
2:56 PM 38.8 °F 34.6 °F -0.9 °F 19% 30.16 in 10.0 mi SE 5.8 mph - N/A   Clear
3:16 PM 38.5 °F 34.1 °F 0.1 °F 20% 30.16 in 10.0 mi SE 5.8 mph - N/A   Clear
3:36 PM 38.3 °F 34.8 °F -0.0 °F 20% 30.17 in 10.0 mi ESE 4.6 mph - N/A   Clear
3:56 PM 37.2 °F 33.6 °F 1.4 °F 22% 30.17 in 10.0 mi ESE 4.6 mph - N/A   Clear
4:16 PM 35.1 °F 29.3 °F 2.8 °F 26% 30.18 in 10.0 mi ESE 6.9 mph - N/A   Clear
4:36 PM 30.6 °F 24.7 °F 5.5 °F 35% 30.18 in 10.0 mi ESE 5.8 mph - N/A   Clear
4:56 PM 27.3 °F - 3.9 °F 37% 30.18 in 10.0 mi Calm Calm - N/A   Clear
5:16 PM 26.2 °F - 6.1 °F 42% 30.19 in 10.0 mi Calm Calm - N/A   Clear
5:36 PM 22.1 °F - 8.2 °F 55% 30.19 in 10.0 mi Calm Calm - N/A   Clear
6:16 PM 19.2 °F 12.5 °F 6.8 °F 59% 30.20 in 10.0 mi SSW 4.6 mph - N/A   Clear
6:36 PM 18.5 °F 11.7 °F 5.9 °F 58% 30.20 in 10.0 mi SSW 4.6 mph - N/A   Clear
6:56 PM 19.6 °F 13.0 °F 5.9 °F 55% 30.20 in 10.0 mi SSW 4.6 mph - N/A   Clear
7:16 PM 17.8 °F - 6.6 °F 62% 30.20 in 10.0 mi Calm Calm - N/A   Clear
7:36 PM 16.7 °F 11.2 °F 5.9 °F 63% 30.20 in 10.0 mi SW 3.5 mph - N/A   Clear
7:56 PM 13.8 °F - 5.0 °F 68% 30.19 in 10.0 mi Calm Calm - N/A   Clear
8:16 PM 13.6 °F - 5.2 °F 69% 30.19 in 10.0 mi Calm Calm - N/A   Clear
8:36 PM 12.2 °F - 5.7 °F 75% 30.18 in 10.0 mi Calm Calm - N/A   Clear
8:56 PM 11.8 °F 5.7 °F 5.5 °F 76% 30.18 in 10.0 mi SSW 3.5 mph - N/A   Clear
9:16 PM 11.3 °F - 5.2 °F 76% 30.18 in 10.0 mi Calm Calm - N/A   Clear
9:36 PM 11.8 °F - 5.2 °F 75% 30.18 in 10.0 mi Calm Calm - N/A   Clear
9:56 PM 10.4 °F 4.0 °F 4.3 °F 76% 30.18 in 10.0 mi SW 3.5 mph - N/A   Clear
10:16 PM 11.1 °F 4.9 °F 4.6 °F 75% 30.18 in 10.0 mi South 3.5 mph - N/A   Clear
10:36 PM 11.8 °F 5.7 °F 4.5 °F 72% 30.18 in 10.0 mi SW 3.5 mph - N/A   Clear
10:56 PM 9.7 °F - 3.6 °F 76% 30.19 in 10.0 mi Calm Calm - N/A   Clear
11:16 PM 10.0 °F 3.6 °F 3.2 °F 74% 30.19 in 10.0 mi SSW 3.5 mph - N/A   Clear
11:36 PM 10.4 °F - 4.5 °F 77% 30.19 in 10.0 mi Calm Calm - N/A   Clear
11:56 PM 9.1 °F - 3.6 °F 78% 30.18 in 10.0 mi Calm Calm - N/A   Clear